SCP
-0 -0 -0 -0 -0 -0 -0 -0 -0 -0 -0 -0 -0 -0 -0 -0 -0 -0 0 -0 0 0 0 0 0 0 0 0 0 0 0 -0 -0 0 0 -0 0 0 -0 0 -0 0 0 -0 -0
-0 -0 -0 -0 -0 -0 -0 -0 -0 -0 -0 -0 -0 -0 -0 -0 -0 0 -0 -0 0 0 0 0 0 0 0 0 0 0 -0 -0 -0 0 0 0 0 0 0 0 0 -0 0 0 -0
-0 -0 -0 -0 -0 -0 -0 -0 -0 -0 -0 -0 0 0 0 0 0 -0 0 -0 0 0 0 0 0 0 0 0 0 0 0 0 0 0 -0 -0 -0 -0 0 0 -0 -0 -0 0 0
-0 -0 -0 -0 -0 -0 -0 -0 -0 -0 -0 -0 0 0 0 0 0 0 0 -0 0 0 0 0 0 0 0 0 0 0 0 0 0 0 -0 -0 0 0 0 -0 0 -0 -0 0 -0
-0 -0 -0 -0 -0 -0 -0 -0 -0 -0 -0 -0 0 0 0 0 -0 0 0 0 0 -0 0 0 0 0 0 0 0 0 0 0 0 0 0 0 0 0 0 0 0 0 0 -0 0
-0 -0 -0 -0 -0 -0 -0 -0 -0 -0 -0 -0 0 0 0 0 0 0 0 0 -0 -0 0 0 0 0 0 0 0 0 0 0 0 0 0 0 0 0 0 0 0 0 -0 0 0
-0 -0 -0 -0 -0 -0 -0 -0 -0 -0 -0 0 0 0 0 -0 0 0 0 0 -0 0 0 0 0 0 0 0 0 0 0 0 0 0 0 0 0 0 0 0 0 0 -0 0 0
-0 -0 -0 -0 -0 -0 -0 -0 -0 -0 0 0 0 0 -0 0 0 0 0 0 0 0 0 0 0 0 0 0 0 0 0 0 0 0 0 0 0 0 0 0 0 0 0 -0 0
-0 -0 -0 -0 -0 -0 -0 -0 -0 0 0 0 0 0 -0 0 0 0 0 -0 0 0 0 0 0 0 0 0 0 0 0 -0 0 0 0 0 0 -0 0 0 0 0 0 0 0
-0 -0 -0 -0 -0 -0 -0 0 0 0 0 0 0 0 0 0 0 0 0 0 0 0 0 0 0 0 0 0 0 0 -0 -0 -0 0 0 0 0 0 0 0 0 0 0 0 0
-0 -0 -0 -0 -0 -0 0 0 0 0 0 0 0 0 0 0 0 0 0 -0 0 0 0 0 0 0 0 0 0 0 0 0 0 0 0 0 0 0 0 0 0 0 0 0 0
-0 -0 -0 -0 -0 -0 0 0 0 0 0 0 0 -0 0 0 0 0 0 0 0 0 0 0 0 0 0 0 0 0 0 0 0 0 0 0 0 0 0 0 0 0 0 0 0
0 0 0 -0 -0 0 0 0 0 0 0 0 0 0 -0 0 0 -0 0 0 0 0 0 0 0 0 0 0 0 0 0 0 -0 -0 0 0 0 0 0 0 0 0 0 0 0
0 0 0 -0 0 0 0 0 0 0 0 0 0 0 0 0 0 0 0 0 0 0 0 0 0 0 0 0 0 0 0 0 0 -0 -0 0 0 0 0 0 0 0 0 0 0
0 0 0 0 0 0 0 0 0 0 0 0 0 0 0 0 0 0 0 0 0 0 0 -0 0 0 0 0 0 0 0 0 0 0 -0 0 0 0 0 0 0 -0 0 0 0
0 0 0 0 0 0 0 0 0 0 0 0 0 0 0 0 0 0 0 0 0 0 0 0 0 0 0 0 0 0 0 0 0 0 0 0 0 0 0 0 0 0 0 0 0
0 0 0 0 0 0 0 0 0 0 0 0 0 0 0 0 -0 0 0 0 0 0 0 -0 -0 -0 -0 0 0 0 0 0 0 0 0 0 0 -0 0 0 0 0 0 0 0
0 0 -0 0 0 0 0 0 0 0 0 0 0 0 0 0 0 0 0 0 0 0 0 0 0 -0 0 0 0 0 0 0 0 0 0 0 0 0 0 0 0 0 0 0 0
0 0 0 0 0 0 0 0 0 0 0 0 0 0 0 0 0 0 0 0 0 0 0 0 0 0 0 0 0 0 0 0 0 0 0 0 0 0 0 0 0 0 0 0 0
0 0 0 0 0 0 0 0 0 0 0 0 0 0 0 0 0 0 0 0 0 0 0 0 0 0 0 0 0 0 0 0 0 0 0 0 0 0 0 0 0 0 0 0 0
0 0 0 0 0 0 0 0 0 0 0 0 0 0 0 0 0 0 0 0 0 0 0 0 0 0 0 0 0 0 0 0 0 0 0 0 0 0 0 0 0 0 0 0 0
0 0 0 0 0 0 0 0 0 0 0 0 0 0 -0 0 0 0 0 0 0 0 0 0 0 0 0 0 0 0 0 0 0 0 0 0 0 0 0 0 0 0 0 0 0
0 0 0 0 0 0 0 0 0 0 0 0 0 0 0 -0 0 0 0 0 0 0 0 0 0 0 0 0 0 0 0 0 0 0 0 0 0 0 0 0 0 0 0 0 0
0 0 0 0 0 0 0 0 0 0 0 0 0 0 0 0 0 0 0 0 0 0 0 0 0 0 0 0 0 0 0 0 0 0 0 0 0 0 0 0 0 0 0 0 0
0 0 0 0 0 0 0 0 0 0 0 0 0 0 0 0 0 0 0 0 0 0 0 0 0 0 0 0 0 0 0 0 0 0 0 0 0 0 0 0 0 0 0 0 0
0 0 0 0 0 0 0 0 0 0 0 0 0 0 0 0 0 0 0 0 0 0 0 0 0 0 0 0 0 0 0 0 0 0 0 0 0 0 0 0 0 0 0 0 0
0 0 0 0 0 0 0 0 0 0 0 0 0 0 0 0 0 0 0 0 0 0 0 0 0 0 0 0 0 0 0 0 0 0 0 0 0 0 0 0 0 0 0 0 0
Wind_Speed_500mb
35 33 32 29 28 27 27 27 19 15 12 12 13 13 14 16 19 25 28 9 14 10 16 16 9 9 8 12 13 15 5 2 7 1 9 41 11 47 17 39 39 24 50 57 56
35 35 33 31 29 28 26 25 21 16 14 13 12 13 16 18 24 36 10 16 13 7 15 19 12 8 14 8 5 6 5 9 15 15 22 9 5 37 24 31 28 45 53 56 62
35 35 34 33 31 28 27 23 22 16 15 14 12 11 15 17 23 8 11 8 13 11 17 13 11 18 12 25 11 5 10 9 39 29 41 47 47 32 40 11 67 70 72 61 68
36 35 34 34 33 30 27 23 20 17 14 13 12 12 13 13 7 2 4 10 8 8 16 14 9 6 8 9 12 5 30 31 55 58 31 50 56 28 32 36 73 69 63 61 61
37 35 35 34 34 32 28 22 18 16 14 12 11 13 12 13 22 4 4 5 13 19 22 12 12 7 7 9 10 14 29 43 52 45 8 24 27 39 41 70 69 60 56 56 62
38 37 35 35 34 32 30 22 16 15 12 10 11 13 13 12 10 7 11 10 15 25 20 13 15 33 27 14 8 28 37 35 15 8 3 25 23 21 45 70 65 65 56 52 43
40 38 37 36 36 33 31 22 15 13 10 9 12 15 22 35 11 8 13 12 18 16 10 14 15 19 15 17 24 28 13 12 7 3 4 43 9 21 68 72 72 68 59 52 52
42 40 39 37 37 34 29 20 13 13 12 12 13 16 20 2 21 11 11 17 22 14 21 21 22 23 7 20 20 11 9 7 11 8 2 14 10 16 70 72 61 66 56 59 63
43 42 40 37 37 35 26 17 12 12 12 12 11 13 21 10 39 28 25 16 13 12 12 18 19 8 13 8 11 12 3 3 15 13 11 9 11 48 68 64 63 68 61 75 73
45 44 41 37 36 36 19 13 9 12 13 14 17 14 25 24 28 30 29 19 18 22 25 16 5 6 8 9 7 7 7 11 10 13 2 6 15 26 63 64 67 73 69 83 81
45 46 42 36 32 29 12 6 8 2 14 22 13 28 33 18 23 29 28 35 34 26 9 12 5 12 19 14 15 6 7 14 15 17 17 27 16 18 50 49 54 67 75 81 86
45 45 43 35 26 12 14 17 12 28 23 35 43 54 59 46 20 37 31 40 22 8 2 9 14 22 15 15 13 13 18 22 18 11 14 12 19 18 19 39 64 73 80 84 85
45 44 42 34 18 7 12 27 24 27 12 28 51 49 61 28 30 40 41 42 11 10 11 13 19 7 12 21 13 12 10 8 15 7 7 9 10 5 11 29 57 69 88 89 90
44 42 41 36 7 9 10 12 13 18 6 15 13 21 50 43 13 38 46 42 10 20 12 13 32 21 16 20 17 5 7 7 13 13 2 6 7 9 9 16 16 60 64 84 91
45 41 36 32 28 16 16 12 7 3 4 7 12 6 36 32 6 32 50 40 15 15 13 18 11 10 8 15 13 14 1 4 5 8 6 11 9 14 5 15 15 27 66 92 98
47 40 40 26 28 8 10 7 2 8 12 8 18 16 14 31 18 5 43 40 39 13 7 17 36 9 11 7 5 1 10 16 10 7 8 11 11 10 9 8 12 22 25 37 40
51 42 37 36 17 3 9 2 8 6 11 6 6 15 17 15 26 15 13 9 14 10 11 12 21 10 7 9 6 14 14 7 8 9 10 14 6 14 16 5 12 25 49 55 65
52 44 36 38 19 14 7 8 7 13 12 13 12 9 19 16 19 17 16 15 9 10 6 9 16 9 6 13 19 10 16 12 12 7 9 11 5 4 10 34 35 54 64 71 67
48 39 39 11 27 26 11 5 14 11 5 16 26 10 8 8 12 17 20 22 19 22 20 11 13 2 16 8 20 10 7 13 12 6 7 7 9 6 17 33 30 36 65 66 74
45 42 18 33 40 29 8 11 11 8 12 9 6 8 8 8 9 2 17 17 24 27 22 16 9 21 18 8 4 16 11 4 7 4 6 8 1 5 24 27 15 20 19 52 68
28 22 17 48 34 14 7 13 11 28 22 7 13 7 8 9 3 7 10 4 14 27 28 11 10 21 4 4 6 6 6 13 11 8 11 3 6 3 2 9 8 27 36 47 57
11 4 28 44 12 7 6 9 10 29 33 14 20 4 6 7 7 7 11 8 6 7 16 10 13 10 16 8 16 9 8 11 10 3 4 6 10 10 5 27 52 31 27 40 46
13 14 23 41 6 6 11 11 19 28 24 10 6 6 3 5 5 3 4 10 14 8 10 9 5 5 12 10 9 12 2 10 14 7 8 10 10 9 12 24 38 54 49 36 35
8 5 11 30 20 11 2 11 11 22 28 26 6 5 5 6 6 7 9 6 4 9 13 12 6 11 13 9 5 1 5 8 13 7 8 11 9 10 4 5 23 59 63 61 45
7 8 10 5 7 10 6 10 13 9 10 4 5 10 7 2 8 5 6 10 7 17 7 10 7 6 5 3 4 7 9 9 9 11 11 16 14 12 19 19 35 47 72 74 63
4 8 15 16 18 5 8 6 19 16 7 14 2 9 6 10 7 5 1 9 5 7 8 8 5 6 4 0 8 4 10 16 17 10 9 1 12 8 36 29 33 49 52 47 48
3 11 6 12 9 3 4 11 18 12 13 5 12 7 17 8 8 9 12 15 6 7 5 7 7 6 4 7 9 8 7 12 9 9 13 13 19 14 10 26 43 51 53 53 53
Wind_Direction_500mb
2 359 357 355 349 348 350 352 337 322 304 292 283 279 278 274 270 268 259 215 190 283 296 307 252 134 267 280 272 273 67 353 282 173 209 161 145 169 212 160 170 163 162 153 159
360 357 355 352 347 344 344 344 339 321 305 288 280 281 281 283 283 274 266 205 209 227 289 296 212 300 277 258 267 137 76 245 195 22 53 299 186 188 160 163 136 135 148 158 166
356 355 352 350 346 342 339 336 337 322 308 289 280 282 288 295 302 333 194 187 232 242 276 204 225 278 255 258 237 197 206 239 278 191 162 205 213 186 142 163 152 149 150 161 169
352 352 350 346 343 339 334 329 329 321 305 294 281 284 291 288 257 6 78 212 191 209 179 199 245 225 228 213 234 230 262 260 271 278 183 199 186 165 165 172 162 156 155 167 171
349 347 346 343 341 338 332 322 318 316 301 295 281 285 291 265 252 305 292 174 167 180 190 233 298 301 262 270 325 189 261 277 275 257 240 161 165 161 177 161 156 149 156 173 181
346 344 341 339 338 336 330 317 306 309 301 295 287 279 274 263 231 200 223 176 178 188 202 237 303 313 284 276 180 295 303 275 239 306 118 117 117 107 158 157 151 157 167 179 172
343 341 339 336 334 334 330 313 295 295 288 289 292 283 263 247 235 235 259 218 181 191 253 321 333 322 324 328 331 312 312 349 359 325 107 120 71 148 163 158 163 173 177 165 159
340 338 336 334 330 330 329 309 283 282 267 272 287 290 261 193 188 217 227 199 192 242 287 320 303 317 329 319 345 338 41 41 282 336 329 144 198 167 166 167 172 173 174 161 160
337 336 333 333 329 325 327 304 273 265 263 268 281 278 265 202 215 227 204 187 180 255 271 290 314 332 327 64 0 0 226 258 298 230 199 127 205 184 174 171 171 176 181 167 165
334 333 331 331 330 322 328 310 279 260 259 263 249 286 249 220 208 213 211 212 246 271 239 257 293 29 12 72 225 267 9 318 269 296 235 221 225 155 186 174 176 182 182 176 177
332 330 329 329 330 322 10 30 2 52 283 244 257 244 271 3 198 204 205 211 236 255 180 254 102 233 246 207 226 240 243 256 259 256 194 211 187 217 181 186 184 190 188 186 190
330 329 328 327 328 315 16 28 2 320 291 270 261 262 260 266 286 225 202 197 217 213 259 356 247 229 236 263 253 267 267 273 285 263 161 179 216 215 158 202 192 195 196 197 196
327 328 326 326 319 273 351 16 359 345 281 277 248 238 242 229 236 225 197 201 175 211 240 202 247 305 219 265 265 251 228 237 229 320 24 110 335 210 232 218 210 205 208 206 204
323 325 325 327 304 299 75 1 351 3 23 273 213 235 224 227 276 216 194 202 214 194 221 237 261 246 260 250 187 245 203 235 45 46 325 30 259 317 297 306 200 233 221 215 212
318 319 316 315 302 309 319 332 328 21 340 229 181 212 195 171 190 198 195 209 184 205 128 244 280 302 289 235 173 213 122 52 66 85 71 346 83 270 339 311 292 275 236 224 221
312 311 305 296 288 320 323 316 87 53 254 298 158 163 121 187 236 119 189 212 222 210 210 240 283 228 237 309 219 131 76 36 46 63 20 258 134 275 260 263 328 354 346 220 187
307 304 294 281 243 19 350 318 62 170 321 255 182 149 175 169 220 195 174 177 176 179 279 307 279 269 260 249 355 76 61 5 359 6 224 297 22 243 303 344 116 83 73 92 121
305 306 284 263 234 212 200 62 156 236 272 304 335 217 180 165 209 186 170 207 251 123 130 197 309 204 230 189 197 177 152 153 204 189 248 320 273 267 344 38 71 99 101 104 108
311 309 289 252 186 175 152 115 210 222 327 342 324 155 210 197 177 179 186 196 200 179 185 170 258 261 299 251 176 190 147 187 134 48 73 239 300 322 14 33 25 110 116 121 131
320 321 308 158 155 154 96 224 231 237 347 13 280 43 75 21 37 208 188 199 211 192 168 217 250 264 275 42 12 138 164 79 21 134 236 277 249 358 3 14 12 48 80 121 127
319 320 137 152 154 173 173 234 280 274 293 244 318 350 23 53 14 270 223 313 209 201 185 175 143 268 41 40 204 8 35 56 112 107 174 185 273 270 274 302 20 152 135 128 133
299 299 168 166 146 178 196 219 252 271 283 280 228 246 144 48 349 324 16 25 40 110 141 172 154 218 222 29 89 80 136 113 110 295 85 138 259 260 151 58 64 77 134 130 126
311 274 179 193 169 253 281 270 252 269 271 271 213 155 70 82 345 277 253 282 121 99 153 195 71 76 355 7 17 105 138 111 111 99 177 135 254 204 234 111 106 103 109 80 87
297 321 257 216 227 165 253 266 251 294 250 223 157 108 55 0 183 270 323 334 61 112 130 101 107 141 188 184 162 28 174 179 123 119 212 217 239 218 239 194 150 134 149 154 142
240 256 353 307 310 331 212 282 303 321 339 196 132 155 140 187 344 315 315 0 27 138 63 94 137 104 126 332 100 169 230 187 192 199 157 242 213 215 187 197 177 156 154 157 164
281 2 338 301 284 282 192 261 230 272 258 313 298 219 118 111 150 46 337 49 7 339 28 9 167 119 101 234 337 249 191 215 225 210 241 180 271 194 181 175 164 161 152 151 156
272 278 270 285 317 17 255 342 313 330 306 262 249 121 96 135 155 127 99 102 105 107 58 65 101 70 302 356 11 3 222 250 200 199 175 185 224 145 185 193 186 170 170 162 153
Wind_Speed_850mb
35 33 32 29 28 27 27 27 19 15 12 12 13 13 14 16 19 25 28 9 14 10 16 16 9 9 8 12 13 15 5 2 7 1 9 41 11 47 17 39 39 24 50 57 56
35 35 33 31 29 28 26 25 21 16 14 13 12 13 16 18 24 36 10 16 13 7 15 19 12 8 14 8 5 6 5 9 15 15 22 9 5 37 24 31 28 45 53 56 62
35 35 34 33 31 28 27 23 22 16 15 14 12 11 15 17 23 8 11 8 13 11 17 13 11 18 12 25 11 5 10 9 39 29 41 47 47 32 40 11 67 70 72 61 68
36 35 34 34 33 30 27 23 20 17 14 13 12 12 13 13 7 2 4 10 8 8 16 14 9 6 8 9 12 5 30 31 55 58 31 50 56 28 32 36 73 69 63 61 61
37 35 35 34 34 32 28 22 18 16 14 12 11 13 12 13 22 4 4 5 13 19 22 12 12 7 7 9 10 14 29 43 52 45 8 24 27 39 41 70 69 60 56 56 62
38 37 35 35 34 32 30 22 16 15 12 10 11 13 13 12 10 7 11 10 15 25 20 13 15 33 27 14 8 28 37 35 15 8 3 25 23 21 45 70 65 65 56 52 43
40 38 37 36 36 33 31 22 15 13 10 9 12 15 22 35 11 8 13 12 18 16 10 14 15 19 15 17 24 28 13 12 7 3 4 43 9 21 68 72 72 68 59 52 52
42 40 39 37 37 34 29 20 13 13 12 12 13 16 20 2 21 11 11 17 22 14 21 21 22 23 7 20 20 11 9 7 11 8 2 14 10 16 70 72 61 66 56 59 63
43 42 40 37 37 35 26 17 12 12 12 12 11 13 21 10 39 28 25 16 13 12 12 18 19 8 13 8 11 12 3 3 15 13 11 9 11 48 68 64 63 68 61 75 73
45 44 41 37 36 36 19 13 9 12 13 14 17 14 25 24 28 30 29 19 18 22 25 16 5 6 8 9 7 7 7 11 10 13 2 6 15 26 63 64 67 73 69 83 81
45 46 42 36 32 29 12 6 8 2 14 22 13 28 33 18 23 29 28 35 34 26 9 12 5 12 19 14 15 6 7 14 15 17 17 27 16 18 50 49 54 67 75 81 86
45 45 43 35 26 12 14 17 12 28 23 35 43 54 59 46 20 37 31 40 22 8 2 9 14 22 15 15 13 13 18 22 18 11 14 12 19 18 19 39 64 73 80 84 85
45 44 42 34 18 7 12 27 24 27 12 28 51 49 61 28 30 40 41 42 11 10 11 13 19 7 12 21 13 12 10 8 15 7 7 9 10 5 11 29 57 69 88 89 90
44 42 41 36 7 9 10 12 13 18 6 15 13 21 50 43 13 38 46 42 10 20 12 13 32 21 16 20 17 5 7 7 13 13 2 6 7 9 9 16 16 60 64 84 91
45 41 36 32 28 16 16 12 7 3 4 7 12 6 36 32 6 32 50 40 15 15 13 18 11 10 8 15 13 14 1 4 5 8 6 11 9 14 5 15 15 27 66 92 98
47 40 40 26 28 8 10 7 2 8 12 8 18 16 14 31 18 5 43 40 39 13 7 17 36 9 11 7 5 1 10 16 10 7 8 11 11 10 9 8 12 22 25 37 40
51 42 37 36 17 3 9 2 8 6 11 6 6 15 17 15 26 15 13 9 14 10 11 12 21 10 7 9 6 14 14 7 8 9 10 14 6 14 16 5 12 25 49 55 65
52 44 36 38 19 14 7 8 7 13 12 13 12 9 19 16 19 17 16 15 9 10 6 9 16 9 6 13 19 10 16 12 12 7 9 11 5 4 10 34 35 54 64 71 67
48 39 39 11 27 26 11 5 14 11 5 16 26 10 8 8 12 17 20 22 19 22 20 11 13 2 16 8 20 10 7 13 12 6 7 7 9 6 17 33 30 36 65 66 74
45 42 18 33 40 29 8 11 11 8 12 9 6 8 8 8 9 2 17 17 24 27 22 16 9 21 18 8 4 16 11 4 7 4 6 8 1 5 24 27 15 20 19 52 68
28 22 17 48 34 14 7 13 11 28 22 7 13 7 8 9 3 7 10 4 14 27 28 11 10 21 4 4 6 6 6 13 11 8 11 3 6 3 2 9 8 27 36 47 57
11 4 28 44 12 7 6 9 10 29 33 14 20 4 6 7 7 7 11 8 6 7 16 10 13 10 16 8 16 9 8 11 10 3 4 6 10 10 5 27 52 31 27 40 46
13 14 23 41 6 6 11 11 19 28 24 10 6 6 3 5 5 3 4 10 14 8 10 9 5 5 12 10 9 12 2 10 14 7 8 10 10 9 12 24 38 54 49 36 35
8 5 11 30 20 11 2 11 11 22 28 26 6 5 5 6 6 7 9 6 4 9 13 12 6 11 13 9 5 1 5 8 13 7 8 11 9 10 4 5 23 59 63 61 45
7 8 10 5 7 10 6 10 13 9 10 4 5 10 7 2 8 5 6 10 7 17 7 10 7 6 5 3 4 7 9 9 9 11 11 16 14 12 19 19 35 47 72 74 63
4 8 15 16 18 5 8 6 19 16 7 14 2 9 6 10 7 5 1 9 5 7 8 8 5 6 4 0 8 4 10 16 17 10 9 1 12 8 36 29 33 49 52 47 48
3 11 6 12 9 3 4 11 18 12 13 5 12 7 17 8 8 9 12 15 6 7 5 7 7 6 4 7 9 8 7 12 9 9 13 13 19 14 10 26 43 51 53 53 53
Wind_Direction_850mb
2 359 357 355 349 348 350 352 337 322 304 292 283 279 278 274 270 268 259 215 190 283 296 307 252 134 267 280 272 273 67 353 282 173 209 161 145 169 212 160 170 163 162 153 159
360 357 355 352 347 344 344 344 339 321 305 288 280 281 281 283 283 274 266 205 209 227 289 296 212 300 277 258 267 137 76 245 195 22 53 299 186 188 160 163 136 135 148 158 166
356 355 352 350 346 342 339 336 337 322 308 289 280 282 288 295 302 333 194 187 232 242 276 204 225 278 255 258 237 197 206 239 278 191 162 205 213 186 142 163 152 149 150 161 169
352 352 350 346 343 339 334 329 329 321 305 294 281 284 291 288 257 6 78 212 191 209 179 199 245 225 228 213 234 230 262 260 271 278 183 199 186 165 165 172 162 156 155 167 171
349 347 346 343 341 338 332 322 318 316 301 295 281 285 291 265 252 305 292 174 167 180 190 233 298 301 262 270 325 189 261 277 275 257 240 161 165 161 177 161 156 149 156 173 181
346 344 341 339 338 336 330 317 306 309 301 295 287 279 274 263 231 200 223 176 178 188 202 237 303 313 284 276 180 295 303 275 239 306 118 117 117 107 158 157 151 157 167 179 172
343 341 339 336 334 334 330 313 295 295 288 289 292 283 263 247 235 235 259 218 181 191 253 321 333 322 324 328 331 312 312 349 359 325 107 120 71 148 163 158 163 173 177 165 159
340 338 336 334 330 330 329 309 283 282 267 272 287 290 261 193 188 217 227 199 192 242 287 320 303 317 329 319 345 338 41 41 282 336 329 144 198 167 166 167 172 173 174 161 160
337 336 333 333 329 325 327 304 273 265 263 268 281 278 265 202 215 227 204 187 180 255 271 290 314 332 327 64 0 0 226 258 298 230 199 127 205 184 174 171 171 176 181 167 165
334 333 331 331 330 322 328 310 279 260 259 263 249 286 249 220 208 213 211 212 246 271 239 257 293 29 12 72 225 267 9 318 269 296 235 221 225 155 186 174 176 182 182 176 177
332 330 329 329 330 322 10 30 2 52 283 244 257 244 271 3 198 204 205 211 236 255 180 254 102 233 246 207 226 240 243 256 259 256 194 211 187 217 181 186 184 190 188 186 190
330 329 328 327 328 315 16 28 2 320 291 270 261 262 260 266 286 225 202 197 217 213 259 356 247 229 236 263 253 267 267 273 285 263 161 179 216 215 158 202 192 195 196 197 196
327 328 326 326 319 273 351 16 359 345 281 277 248 238 242 229 236 225 197 201 175 211 240 202 247 305 219 265 265 251 228 237 229 320 24 110 335 210 232 218 210 205 208 206 204
323 325 325 327 304 299 75 1 351 3 23 273 213 235 224 227 276 216 194 202 214 194 221 237 261 246 260 250 187 245 203 235 45 46 325 30 259 317 297 306 200 233 221 215 212
318 319 316 315 302 309 319 332 328 21 340 229 181 212 195 171 190 198 195 209 184 205 128 244 280 302 289 235 173 213 122 52 66 85 71 346 83 270 339 311 292 275 236 224 221
312 311 305 296 288 320 323 316 87 53 254 298 158 163 121 187 236 119 189 212 222 210 210 240 283 228 237 309 219 131 76 36 46 63 20 258 134 275 260 263 328 354 346 220 187
307 304 294 281 243 19 350 318 62 170 321 255 182 149 175 169 220 195 174 177 176 179 279 307 279 269 260 249 355 76 61 5 359 6 224 297 22 243 303 344 116 83 73 92 121
305 306 284 263 234 212 200 62 156 236 272 304 335 217 180 165 209 186 170 207 251 123 130 197 309 204 230 189 197 177 152 153 204 189 248 320 273 267 344 38 71 99 101 104 108
311 309 289 252 186 175 152 115 210 222 327 342 324 155 210 197 177 179 186 196 200 179 185 170 258 261 299 251 176 190 147 187 134 48 73 239 300 322 14 33 25 110 116 121 131
320 321 308 158 155 154 96 224 231 237 347 13 280 43 75 21 37 208 188 199 211 192 168 217 250 264 275 42 12 138 164 79 21 134 236 277 249 358 3 14 12 48 80 121 127
319 320 137 152 154 173 173 234 280 274 293 244 318 350 23 53 14 270 223 313 209 201 185 175 143 268 41 40 204 8 35 56 112 107 174 185 273 270 274 302 20 152 135 128 133
299 299 168 166 146 178 196 219 252 271 283 280 228 246 144 48 349 324 16 25 40 110 141 172 154 218 222 29 89 80 136 113 110 295 85 138 259 260 151 58 64 77 134 130 126
311 274 179 193 169 253 281 270 252 269 271 271 213 155 70 82 345 277 253 282 121 99 153 195 71 76 355 7 17 105 138 111 111 99 177 135 254 204 234 111 106 103 109 80 87
297 321 257 216 227 165 253 266 251 294 250 223 157 108 55 0 183 270 323 334 61 112 130 101 107 141 188 184 162 28 174 179 123 119 212 217 239 218 239 194 150 134 149 154 142
240 256 353 307 310 331 212 282 303 321 339 196 132 155 140 187 344 315 315 0 27 138 63 94 137 104 126 332 100 169 230 187 192 199 157 242 213 215 187 197 177 156 154 157 164
281 2 338 301 284 282 192 261 230 272 258 313 298 219 118 111 150 46 337 49 7 339 28 9 167 119 101 234 337 249 191 215 225 210 241 180 271 194 181 175 164 161 152 151 156
272 278 270 285 317 17 255 342 313 330 306 262 249 121 96 135 155 127 99 102 105 107 58 65 101 70 302 356 11 3 222 250 200 199 175 185 224 145 185 193 186 170 170 162 153